Flag for Germany Weather past 2 weeks in Magdeburg, Saxony-Anhalt, Germany

Now
33 °F

Overcast.


Feels Like: 29 °F
Forecast: 29 / 34 °F
Wind: 3 mph from West

Location: Magdeburg

Current Time: Feb 2, 2015 at 1:37:22 AM

Latest Report: Feb 2, 2015 at 1:00 AM


Visibility: 5 mi

Pressure: 29.32 "Hg

Humidity: 88%

Dew point: 29 °F

Location of MagdeburgLocation

Historic Weather in Magdeburg — Graph

°F

Magdeburg temperature yesterday

Maximum temperature yesterday: 38 °F (at 2:00 PM)
Minimum temperature yesterday: 26 °F (at 3:00 AM)
Average temperature yesterday: 31 °F

Past Weeks' High & Low Weather Summary

 TemperatureHumidityPressure
High42 °F (Jan 27, 2:00 PM)98% (Jan 20, 9:00 AM)30.34 "Hg (Jan 20, 9:00 AM)
Low24 °F (Jan 19, 7:00 AM)66% (Jan 29, 11:00 AM)28.70 "Hg (Jan 30, 5:00 AM)
Average33 °F88%29.77 "Hg
* Reported Midnight between Jan 17 and Jan 18 — Midnight between Feb 1 and Feb 2, Magdeburg, Weather by CustomWeather, © 2014

Note: Actual official high and low records may vary slightly from our data, if they occured in-between our weather recording intervals... More about our weather records

Advertising

Magdeburg weather history for previous 24 hours

 ConditionsComfort  
Time TempWeatherWind HumidityBarometerVisibility
12:00 AM
Feb 2
28 °FFog.2 mph91%29.32 "Hg4 mi
11:00 PM
Feb 1
30 °FPassing clouds.2 mph86%29.29 "Hg6 mi
9:00 PM32 °FPassing clouds.1 mph86%29.29 "Hg9 mi
8:00 PM33 °FPassing clouds.2 mph83%29.29 "Hg9 mi
7:00 PM34 °FPassing clouds.2 mph79%29.29 "Hg9 mi
6:00 PM32 °FPassing clouds.2 mph85%29.26 "Hg11 mi
5:00 PM35 °FPassing clouds.2 mph77%29.26 "Hg16 mi
3:00 PM38 °FScattered clouds.3 mph69%29.23 "Hg16 mi
2:00 PM38 °FScattered clouds.2 mph66%29.23 "Hg16 mi
1:00 PM37 °FScattered clouds.3 mph68%29.21 "Hg12 mi
12:00 PM36 °FScattered clouds.3 mph70%29.21 "Hg12 mi
11:00 AM34 °FScattered clouds.5 mph73%29.21 "Hg9 mi
9:00 AM28 °FPassing clouds.2 mph85%29.18 "Hg6 mi
8:00 AM28 °FPassing clouds.2 mph88%29.18 "Hg6 mi
7:00 AM27 °FPassing clouds.1 mph92%29.15 "Hg5 mi
6:00 AM29 °FPassing clouds.2 mph89%29.15 "Hg6 mi
5:00 AM27 °FClear.2 mph90%29.12 "Hg6 mi
3:00 AM26 °FPassing clouds.1 mph92%29.12 "Hg5 mi
2:00 AM27 °FPassing clouds.2 mph89%29.12 "Hg7 mi
1:00 AM28 °FPassing clouds.2 mph89%29.09 "Hg7 mi
Weather by CustomWeather, © 2014

See weather overviewHow to use our weather pages